^^
Saratoga-Weather Station Historical Data
Daily Summary for January 29, 2022 Units:  Metric    English   Both
Daily Weekly Monthly Yearly Custom
  High: Low: Average:
Temperature: 8.2 °C 2.7 °C 4.8 °C
Dew Point: 7.4 °C 1.9 °C 4.1 °C
Humidity: 96% 94% 95%
Wind Speed: 17.7km/h 0km/h 4.5km/h
Wind Gust: 32.2km/h - -
Wind- - WSW
Pressure: 1034.9 hPa 1027.4 hPa -
Precipitation: 3.0 mm    
Historical Graphs
 
 
Tabular Data for January 29, 2022
Time Temperature Dew Point Pressure Wind Wind Speed Wind Gust Humidity Rainfall Rate (Hourly) solar
00:02 2.7 °C 2 °C 1034.5 hPa West 1.4 km/h 14.5 km/h 95% 0.0 mm 0 W/m2
00:07 2.7 °C 2 °C 1034.5 hPa Calm   6.4 km/h 95% 0.0 mm 0 W/m2
00:12 2.7 °C 2 °C 1034.9 hPa West 4.7 km/h 14.5 km/h 95% 0.0 mm 0 W/m2
00:17 2.7 °C 2 °C 1034.9 hPa Calm   3.2 km/h 95% 0.0 mm 0 W/m2
00:22 2.7 °C 2 °C 1034.5 hPa West 1.4 km/h 11.3 km/h 95% 0.0 mm 0 W/m2
00:27 2.7 °C 2 °C 1034.5 hPa NNW 4.7 km/h 8 km/h 95% 0.0 mm 0 W/m2
00:32 2.8 °C 2.1 °C 1034.5 hPa SW 3.2 km/h 6.4 km/h 95% 0.0 mm 0 W/m2
00:37 2.8 °C 2.1 °C 1034.5 hPa Calm   3.2 km/h 95% 0.0 mm 0 W/m2
00:42 2.8 °C 2.1 °C 1034.2 hPa NW 4.7 km/h 8 km/h 95% 0.0 mm 0 W/m2
00:47 2.8 °C 2.1 °C 1034.2 hPa NNE 3.2 km/h 3.2 km/h 95% 0.0 mm 0 W/m2
00:52 2.8 °C 2.1 °C 1034.2 hPa NNW 1.4 km/h 11.3 km/h 95% 0.0 mm 0 W/m2
00:57 2.8 °C 2.1 °C 1034.2 hPa SW 3.2 km/h 8 km/h 95% 0.0 mm 0 W/m2
01:02 2.8 °C 2.1 °C 1033.9 hPa SSW 1.4 km/h 4.8 km/h 95% 0.0 mm 0 W/m2
01:07 2.8 °C 2.1 °C 1033.9 hPa NNW 3.2 km/h 3.2 km/h 95% 0.0 mm 0 W/m2
01:12 2.8 °C 2.1 °C 1033.9 hPa Calm   4.8 km/h 95% 0.0 mm 0 W/m2
01:17 2.8 °C 2.1 °C 1033.9 hPa Calm   4.8 km/h 95% 0.0 mm 0 W/m2
01:22 2.8 °C 2.1 °C 1033.9 hPa WNW 6.4 km/h 9.7 km/h 95% 0.0 mm 0 W/m2
01:27 2.8 °C 2.1 °C 1033.9 hPa Calm   4.8 km/h 95% 0.0 mm 0 W/m2
01:32 2.8 °C 2.1 °C 1033.5 hPa WSW 3.2 km/h 12.9 km/h 95% 0.0 mm 0 W/m2
01:37 2.8 °C 2.1 °C 1033.5 hPa WSW 1.4 km/h 9.7 km/h 95% 0.0 mm 0 W/m2
01:42 2.8 °C 2.1 °C 1033.5 hPa West 1.4 km/h 12.9 km/h 95% 0.0 mm 0 W/m2
01:47 2.8 °C 2.1 °C 1033.5 hPa West 1.4 km/h 6.4 km/h 95% 0.0 mm 0 W/m2
01:52 2.8 °C 2.1 °C 1033.5 hPa Calm   4.8 km/h 95% 0.0 mm 0 W/m2
01:57 2.8 °C 2.1 °C 1033.5 hPa WNW 3.2 km/h 4.8 km/h 95% 0.0 mm 0 W/m2
02:02 2.8 °C 2.1 °C 1033.5 hPa WNW 1.4 km/h 3.2 km/h 95% 0.0 mm 0 W/m2
02:07 2.8 °C 2.1 °C 1033.5 hPa Calm   3.2 km/h 95% 0.0 mm 0 W/m2
02:12 2.7 °C 2 °C 1033.5 hPa Calm   3.2 km/h 95% 0.0 mm 0 W/m2
02:17 2.7 °C 2 °C 1033.5 hPa Calm   6.4 km/h 95% 0.0 mm 0 W/m2
02:22 2.7 °C 2 °C 1033.2 hPa West 4.7 km/h 6.4 km/h 95% 0.0 mm 0 W/m2
02:27 2.7 °C 2 °C 1033.2 hPa Calm   1.6 km/h 95% 0.0 mm 0 W/m2
02:32 2.8 °C 2.1 °C 1033.2 hPa WNW 3.2 km/h 11.3 km/h 95% 0.0 mm 0 W/m2
02:37 2.7 °C 2 °C 1033.2 hPa WNW 4.7 km/h 4.8 km/h 95% 0.0 mm 0 W/m2
02:42 2.8 °C 2.1 °C 1033.2 hPa West 3.2 km/h 6.4 km/h 95% 0.0 mm 0 W/m2
02:47 2.8 °C 2.1 °C 1033.2 hPa ENE 6.4 km/h 6.4 km/h 95% 0.0 mm 0 W/m2
02:52 2.8 °C 2.1 °C 1033.2 hPa South 7.9 km/h 8 km/h 95% 0.0 mm 0 W/m2
02:57 2.8 °C 2.1 °C 1033.2 hPa WNW 6.4 km/h 6.4 km/h 95% 0.0 mm 0 W/m2
03:02 2.8 °C 2.1 °C 1033.2 hPa NNW 3.2 km/h 4.8 km/h 95% 0.0 mm 0 W/m2
03:07 2.8 °C 2.1 °C 1032.8 hPa ESE 4.7 km/h 4.8 km/h 95% 0.0 mm 0 W/m2
03:12 2.8 °C 2.1 °C 1032.8 hPa Calm   4.8 km/h 95% 0.0 mm 0 W/m2
03:17 2.8 °C 2.1 °C 1032.8 hPa NNW 1.4 km/h 4.8 km/h 95% 0.0 mm 0 W/m2
03:22 2.8 °C 2.1 °C 1032.8 hPa Calm   4.8 km/h 95% 0.0 mm 0 W/m2
03:27 2.8 °C 2.1 °C 1032.8 hPa SE 6.4 km/h 9.7 km/h 95% 0.0 mm 0 W/m2
03:32 2.8 °C 2.1 °C 1032.5 hPa SE 7.9 km/h 9.7 km/h 95% 0.0 mm 0 W/m2
03:37 2.8 °C 2.1 °C 1032.5 hPa NW 4.7 km/h 11.3 km/h 95% 0.0 mm 0 W/m2
03:42 2.8 °C 2.1 °C 1032.5 hPa NW 4.7 km/h 6.4 km/h 95% 0.0 mm 0 W/m2
03:47 2.8 °C 2.1 °C 1032.2 hPa WNW 3.2 km/h 6.4 km/h 95% 0.0 mm 0 W/m2
03:52 2.8 °C 2.1 °C 1032.2 hPa Calm   6.4 km/h 95% 0.0 mm 0 W/m2
03:57 2.8 °C 2.1 °C 1031.8 hPa Calm   8 km/h 95% 0.0 mm 0 W/m2
04:02 2.8 °C 1.9 °C 1031.8 hPa South 4.7 km/h 12.9 km/h 94% 0.0 mm 0 W/m2
04:07 2.8 °C 1.9 °C 1031.8 hPa NE 1.4 km/h 6.4 km/h 94% 0.0 mm 0 W/m2
04:12 2.9 °C 2 °C 1031.8 hPa West 9.7 km/h 12.9 km/h 94% 0.0 mm 0 W/m2
04:17 2.9 °C 2 °C 1031.8 hPa SSE 6.4 km/h 8 km/h 94% 0.0 mm 0 W/m2
04:22 2.9 °C 2 °C 1031.5 hPa SE 13 km/h 12.9 km/h 94% 0.0 mm 0 W/m2
04:27 2.9 °C 2 °C 1031.5 hPa ESE 4.7 km/h 4.8 km/h 94% 0.0 mm 0 W/m2
04:32 2.9 °C 2 °C 1031.8 hPa NW 3.2 km/h 12.9 km/h 94% 0.0 mm 0 W/m2
04:37 2.9 °C 2 °C 1031.5 hPa WNW 1.4 km/h 8 km/h 94% 0.0 mm 0 W/m2
04:42 2.9 °C 2 °C 1031.5 hPa West 1.4 km/h 11.3 km/h 94% 0.0 mm 0 W/m2
04:47 2.9 °C 2 °C 1031.5 hPa NNW 4.7 km/h 6.4 km/h 94% 0.0 mm 0 W/m2
04:52 2.9 °C 2 °C 1031.5 hPa NW 4.7 km/h 6.4 km/h 94% 0.0 mm 0 W/m2
04:57 2.9 °C 2 °C 1031.8 hPa WNW 6.4 km/h 11.3 km/h 94% 0.0 mm 0 W/m2
05:02 3 °C 2.1 °C 1031.8 hPa NW 1.4 km/h 6.4 km/h 94% 0.0 mm 0 W/m2
05:07 3 °C 2.1 °C 1031.8 hPa WNW 3.2 km/h 9.7 km/h 94% 0.0 mm 0 W/m2
05:12 3 °C 2.1 °C 1031.8 hPa Calm   11.3 km/h 94% 0.0 mm 0 W/m2
05:17 3 °C 2.1 °C 1031.8 hPa WSW 1.4 km/h 3.2 km/h 94% 0.0 mm 0 W/m2
05:22 3 °C 2.1 °C 1031.5 hPa NE 6.4 km/h 6.4 km/h 94% 0.0 mm 0 W/m2
05:27 3 °C 2.1 °C 1031.5 hPa Calm   11.3 km/h 94% 0.0 mm 0 W/m2
05:32 3 °C 2.1 °C 1031.5 hPa NW 3.2 km/h 4.8 km/h 94% 0.0 mm 0 W/m2
05:37 3 °C 2.1 °C 1031.5 hPa WSW 3.2 km/h 11.3 km/h 94% 0.0 mm 0 W/m2
05:42 3 °C 2.1 °C 1031.5 hPa West 1.4 km/h 3.2 km/h 94% 0.0 mm 0 W/m2
05:47 3 °C 2.1 °C 1031.5 hPa North 1.4 km/h 4.8 km/h 94% 0.0 mm 0 W/m2
05:52 3 °C 2.1 °C 1031.2 hPa NW 4.7 km/h 8 km/h 94% 0.0 mm 0 W/m2
05:57 3 °C 2.1 °C 1031.2 hPa WNW 1.4 km/h 4.8 km/h 94% 0.0 mm 0 W/m2
06:02 3 °C 2.1 °C 1031.2 hPa North 1.4 km/h 3.2 km/h 94% 0.0 mm 0 W/m2
06:07 3 °C 2.1 °C 1031.2 hPa WNW 6.4 km/h 12.9 km/h 94% 0.0 mm 0 W/m2
06:12 2.9 °C 2 °C 1031.2 hPa NE 6.4 km/h 8 km/h 94% 0.0 mm 0 W/m2
06:17 2.9 °C 2 °C 1031.2 hPa WSW 4.7 km/h 11.3 km/h 94% 0.0 mm 0 W/m2
06:22 2.9 °C 2.2 °C 1031.2 hPa WNW 1.4 km/h 8 km/h 95% 0.0 mm 0 W/m2
06:27 2.9 °C 2.2 °C 1031.2 hPa Calm   4.8 km/h 95% 0.0 mm 0 W/m2
06:33 2.9 °C 2.2 °C 1031.2 hPa WNW 6.4 km/h 8 km/h 95% 0.0 mm 0 W/m2
06:38 2.9 °C 2.2 °C 1031.2 hPa NW 6.4 km/h 9.7 km/h 95% 0.0 mm 0 W/m2
06:43 2.9 °C 2.2 °C 1031.2 hPa WNW 3.2 km/h 4.8 km/h 95% 0.0 mm 0 W/m2
06:48 2.9 °C 2.2 °C 1031.2 hPa Calm   1.6 km/h 95% 0.0 mm 0 W/m2
06:53 2.9 °C 2.2 °C 1031.2 hPa Calm   6.4 km/h 95% 0.0 mm 0 W/m2
06:58 2.9 °C 2.2 °C 1031.2 hPa WNW 3.2 km/h 12.9 km/h 95% 0.0 mm 0 W/m2
07:03 2.9 °C 2.2 °C 1031.2 hPa West 1.4 km/h 9.7 km/h 95% 0.0 mm 0 W/m2
07:08 3 °C 2.3 °C 1031.2 hPa East 1.4 km/h 12.9 km/h 95% 0.0 mm 0 W/m2
07:13 3 °C 2.3 °C 1031.2 hPa NNE 1.4 km/h 3.2 km/h 95% 0.0 mm 0 W/m2
07:18 3 °C 2.3 °C 1031.2 hPa NW 3.2 km/h 6.4 km/h 95% 0.0 mm 0 W/m2
07:23 3 °C 2.3 °C 1030.8 hPa WNW 11.1 km/h 11.3 km/h 95% 0.0 mm 0 W/m2
07:28 3 °C 2.3 °C 1030.8 hPa WSW 3.2 km/h 6.4 km/h 95% 0.2 mm 0 W/m2
07:33 3 °C 2.3 °C 1030.8 hPa West 6.4 km/h 6.4 km/h 95% 0.2 mm 0 W/m2
07:38 3 °C 2.3 °C 1031.2 hPa West 1.4 km/h 11.3 km/h 95% 0.2 mm 0 W/m2
07:43 3.1 °C 2.4 °C 1031.2 hPa Calm   1.6 km/h 95% 0.2 mm 0 W/m2
07:48 3.1 °C 2.4 °C 1031.2 hPa NNW 1.4 km/h 12.9 km/h 95% 0.2 mm 0 W/m2
07:53 3.1 °C 2.4 °C 1031.2 hPa Calm   3.2 km/h 95% 0.2 mm 0 W/m2
07:58 3.1 °C 2.4 °C 1031.2 hPa Calm   3.2 km/h 95% 0.2 mm 0 W/m2
08:03 3.1 °C 2.4 °C 1031.2 hPa WSW 6.4 km/h 6.4 km/h 95% 0.2 mm 0 W/m2
08:08 3.1 °C 2.4 °C 1030.8 hPa Calm   4.8 km/h 95% 0.5 mm 0 W/m2
08:13 3.1 °C 2.4 °C 1030.8 hPa Calm   4.8 km/h 95% 0.5 mm 0 W/m2
08:18 3.1 °C 2.4 °C 1030.8 hPa ENE 1.4 km/h 4.8 km/h 95% 0.5 mm 0 W/m2
08:23 3.2 °C 2.5 °C 1030.8 hPa South 7.9 km/h 12.9 km/h 95% 0.5 mm 0 W/m2
08:28 3.2 °C 2.5 °C 1031.2 hPa NNE 1.4 km/h 8 km/h 95% 0.2 mm 5 W/m2
08:33 3.2 °C 2.5 °C 1030.8 hPa NNW 3.2 km/h 4.8 km/h 95% 0.2 mm 7 W/m2
08:38 3.2 °C 2.5 °C 1030.8 hPa NNW 4.7 km/h 9.7 km/h 95% 0.2 mm 12 W/m2
08:43 3.2 °C 2.5 °C 1030.8 hPa Calm   14.5 km/h 95% 0.2 mm 12 W/m2
08:48 3.3 °C 2.6 °C 1030.8 hPa WSW 1.4 km/h 12.9 km/h 95% 0.2 mm 18 W/m2
08:53 3.3 °C 2.6 °C 1030.8 hPa West 4.7 km/h 14.5 km/h 95% 0.2 mm 16 W/m2
08:58 3.3 °C 2.6 °C 1031.2 hPa WNW 4.7 km/h 6.4 km/h 95% 0.2 mm 21 W/m2
09:03 3.3 °C 2.6 °C 1031.2 hPa WNW 6.4 km/h 11.3 km/h 95% 0.2 mm 32 W/m2
09:08 3.3 °C 2.6 °C 1031.2 hPa WNW 3.2 km/h 6.4 km/h 95% 0.2 mm 14 W/m2
09:13 3.3 °C 2.6 °C 1031.2 hPa WNW 3.2 km/h 11.3 km/h 95% 0.2 mm 18 W/m2
09:18 3.4 °C 2.7 °C 1031.2 hPa NW 3.2 km/h 4.8 km/h 95% 0.2 mm 32 W/m2
09:23 3.4 °C 2.8 °C 1031.2 hPa SSE 3.2 km/h 8 km/h 96% 0.2 mm 25 W/m2
09:28 3.4 °C 2.8 °C 1030.8 hPa Calm   6.4 km/h 96% 0.2 mm 37 W/m2
09:33 3.4 °C 2.8 °C 1030.8 hPa Calm   3.2 km/h 96% 0.2 mm 28 W/m2
09:38 3.5 °C 2.9 °C 1030.8 hPa WNW 3.2 km/h 6.4 km/h 96% 0.2 mm 33 W/m2
09:43 3.5 °C 2.9 °C 1030.8 hPa WNW 3.2 km/h 4.8 km/h 96% 0.2 mm 28 W/m2
09:48 3.6 °C 3 °C 1030.8 hPa SW 3.2 km/h 4.8 km/h 96% 0.2 mm 18 W/m2
09:53 3.6 °C 3 °C 1030.8 hPa West 4.7 km/h 11.3 km/h 96% 0.2 mm 54 W/m2
09:58 3.6 °C 2.9 °C 1030.5 hPa Calm   9.7 km/h 95% 0.2 mm 39 W/m2
10:03 3.6 °C 2.9 °C 1030.5 hPa SW 6.4 km/h 6.4 km/h 95% 0.0 mm 44 W/m2
10:08 3.7 °C 3 °C 1030.5 hPa NNE 1.4 km/h 3.2 km/h 95% 0.0 mm 54 W/m2
10:13 3.7 °C 3 °C 1030.5 hPa WNW 1.4 km/h 9.7 km/h 95% 0.0 mm 47 W/m2
10:18 3.7 °C 3 °C 1030.5 hPa North 1.4 km/h 9.7 km/h 95% 0.0 mm 47 W/m2
10:23 3.7 °C 3 °C 1030.5 hPa NW 3.2 km/h 12.9 km/h 95% 0.2 mm 63 W/m2
10:28 3.7 °C 3 °C 1030.5 hPa NW 3.2 km/h 8 km/h 95% 0.2 mm 44 W/m2
10:33 3.8 °C 3.2 °C 1030.1 hPa Calm   12.9 km/h 96% 0.2 mm 69 W/m2
10:38 3.8 °C 3.2 °C 1030.5 hPa WSW 11.1 km/h 11.3 km/h 96% 0.2 mm 51 W/m2
10:43 3.8 °C 3.2 °C 1030.5 hPa NNW 6.4 km/h 8 km/h 96% 0.2 mm 62 W/m2
10:48 3.9 °C 3.3 °C 1030.5 hPa SSE 1.4 km/h 11.3 km/h 96% 0.2 mm 46 W/m2
10:53 3.9 °C 3.2 °C 1030.5 hPa NW 4.7 km/h 8 km/h 95% 0.2 mm 46 W/m2
10:58 4 °C 3.3 °C 1030.5 hPa West 3.2 km/h 9.7 km/h 95% 0.2 mm 49 W/m2
11:03 4 °C 3.3 °C 1030.5 hPa West 4.7 km/h 12.9 km/h 95% 0.2 mm 35 W/m2
11:08 4.1 °C 3.4 °C 1030.5 hPa NNE 1.4 km/h 4.8 km/h 95% 0.2 mm 32 W/m2
11:13 4.1 °C 3.4 °C 1030.5 hPa West 1.4 km/h 12.9 km/h 95% 0.2 mm 58 W/m2
11:18 4.1 °C 3.5 °C 1030.1 hPa WNW 3.2 km/h 4.8 km/h 96% 0.0 mm 51 W/m2
11:23 4.2 °C 3.6 °C 1030.1 hPa NW 3.2 km/h 11.3 km/h 96% 0.0 mm 88 W/m2
11:28 4.2 °C 3.6 °C 1030.1 hPa North 3.2 km/h 6.4 km/h 96% 0.0 mm 83 W/m2
11:33 4.3 °C 3.7 °C 1030.1 hPa SW 3.2 km/h 9.7 km/h 96% 0.0 mm 76 W/m2
11:38 4.3 °C 3.7 °C 1030.1 hPa SW 6.4 km/h 16.1 km/h 96% 0.0 mm 88 W/m2
11:43 4.4 °C 3.8 °C 1030.1 hPa North 3.2 km/h 4.8 km/h 96% 0.0 mm 69 W/m2
11:48 4.4 °C 3.8 °C 1030.1 hPa South 3.2 km/h 16.1 km/h 96% 0.0 mm 84 W/m2
11:53 4.6 °C 4 °C 1030.1 hPa West 3.2 km/h 6.4 km/h 96% 0.0 mm 79 W/m2
11:58 4.6 °C 4 °C 1030.1 hPa Calm   4.8 km/h 96% 0.0 mm 127 W/m2
12:03 4.7 °C 4.1 °C 1030.1 hPa ENE 1.4 km/h   96% 0.0 mm 53 W/m2
12:08 4.7 °C 4 °C 1029.8 hPa WSW 1.4 km/h 17.7 km/h 95% 0.0 mm 98 W/m2
12:13 4.7 °C 4 °C 1029.8 hPa NNE 3.2 km/h 16.1 km/h 95% 0.0 mm 97 W/m2
12:18 4.8 °C 4.2 °C 1029.8 hPa SE 4.7 km/h 17.7 km/h 96% 0.0 mm 97 W/m2
12:23 4.8 °C 4.2 °C 1029.8 hPa East 4.7 km/h 14.5 km/h 96% 0.0 mm 102 W/m2
12:28 4.9 °C 4.2 °C 1029.8 hPa NNW 4.7 km/h 14.5 km/h 95% 0.0 mm 116 W/m2
12:33 5.1 °C 4.4 °C 1029.5 hPa WNW 7.9 km/h 16.1 km/h 95% 0.0 mm 130 W/m2
12:38 5.1 °C 4.5 °C 1029.5 hPa WNW 4.7 km/h 4.8 km/h 96% 0.0 mm 132 W/m2
12:43 5.2 °C 4.6 °C 1029.5 hPa NW 4.7 km/h 6.4 km/h 96% 0.0 mm 139 W/m2
12:48 5.3 °C 4.7 °C 1029.5 hPa SW 3.2 km/h 14.5 km/h 96% 0.0 mm 79 W/m2
12:53 5.4 °C 4.7 °C 1029.1 hPa West 4.7 km/h 9.7 km/h 95% 0.0 mm 37 W/m2
12:58 5.4 °C 4.8 °C 1029.1 hPa NW 3.2 km/h 14.5 km/h 96% 0.0 mm 74 W/m2
13:03 5.5 °C 4.9 °C 1029.1 hPa South 3.2 km/h 20.9 km/h 96% 0.0 mm 104 W/m2
13:08 5.6 °C 4.9 °C 1029.1 hPa NE 6.4 km/h 12.9 km/h 95% 0.0 mm 105 W/m2
13:13 5.7 °C 5 °C 1029.1 hPa West 13 km/h 20.9 km/h 95% 0.0 mm 102 W/m2
13:18 5.7 °C 5 °C 1028.8 hPa WNW 4.7 km/h 11.3 km/h 95% 0.0 mm 162 W/m2
13:23 5.7 °C 5 °C 1028.8 hPa West 9.7 km/h 20.9 km/h 95% 0.0 mm 81 W/m2
13:28 5.7 °C 5 °C 1028.5 hPa South 9.7 km/h 11.3 km/h 95% 0.0 mm 86 W/m2
13:34 5.7 °C 5 °C 1028.5 hPa West 4.7 km/h 4.8 km/h 95% 0.0 mm 83 W/m2
13:39 5.7 °C 5 °C 1028.5 hPa NW 4.7 km/h 11.3 km/h 95% 0.0 mm 81 W/m2
13:44 5.7 °C 5 °C 1028.5 hPa WNW 3.2 km/h 6.4 km/h 95% 0.0 mm 76 W/m2
13:49 5.6 °C 4.9 °C 1028.5 hPa West 9.7 km/h 22.5 km/h 95% 0.0 mm 86 W/m2
13:54 5.6 °C 4.9 °C 1028.5 hPa WSW 3.2 km/h 16.1 km/h 95% 0.0 mm 83 W/m2
13:59 5.7 °C 5 °C 1028.1 hPa West 9.7 km/h 22.5 km/h 95% 0.0 mm 72 W/m2
14:04 5.7 °C 5 °C 1028.1 hPa SW 4.7 km/h 9.7 km/h 95% 0.0 mm 72 W/m2
14:09 5.8 °C 5.1 °C 1028.1 hPa NW 3.2 km/h 17.7 km/h 95% 0.0 mm 83 W/m2
14:14 5.8 °C 5.1 °C 1028.1 hPa West 11.1 km/h 11.3 km/h 95% 0.0 mm 97 W/m2
14:19 5.8 °C 5.1 °C 1028.1 hPa WNW 6.4 km/h 17.7 km/h 95% 0.0 mm 74 W/m2
14:24 5.8 °C 5.1 °C 1027.8 hPa SW 3.2 km/h 6.4 km/h 95% 0.0 mm 63 W/m2
14:29 5.9 °C 5.2 °C 1027.8 hPa WNW 7.9 km/h 11.3 km/h 95% 0.0 mm 79 W/m2
14:34 6 °C 5.3 °C 1028.1 hPa NW 4.7 km/h 11.3 km/h 95% 0.0 mm 79 W/m2
14:39 6 °C 5.3 °C 1027.8 hPa West 4.7 km/h 11.3 km/h 95% 0.0 mm 81 W/m2
14:44 6.1 °C 5.4 °C 1027.8 hPa WNW 17.7 km/h 17.7 km/h 95% 0.0 mm 81 W/m2
14:49 6.1 °C 5.4 °C 1027.8 hPa NW 3.2 km/h 11.3 km/h 95% 0.0 mm 86 W/m2
14:54 6.1 °C 5.4 °C 1027.8 hPa SW 6.4 km/h 12.9 km/h 95% 0.2 mm 114 W/m2
14:59 6.2 °C 5.5 °C 1027.8 hPa WSW 6.4 km/h 14.5 km/h 95% 0.2 mm 88 W/m2
15:04 6.3 °C 5.6 °C 1027.4 hPa North 4.7 km/h 16.1 km/h 95% 0.2 mm 90 W/m2
15:09 6.3 °C 5.6 °C 1027.4 hPa WSW 7.9 km/h 32.2 km/h 95% 0.2 mm 69 W/m2
15:14 6.3 °C 5.6 °C 1027.4 hPa WNW 7.9 km/h 20.9 km/h 95% 0.2 mm 60 W/m2
15:19 6.3 °C 5.6 °C 1027.4 hPa WNW 4.7 km/h 32.2 km/h 95% 0.2 mm 58 W/m2
15:24 6.3 °C 5.6 °C 1027.4 hPa WNW 17.7 km/h 20.9 km/h 95% 0.2 mm 46 W/m2
15:29 6.3 °C 5.6 °C 1027.4 hPa NW 14.3 km/h 16.1 km/h 95% 0.2 mm 53 W/m2
15:34 6.3 °C 5.6 °C 1027.4 hPa WNW 6.4 km/h 17.7 km/h 95% 0.2 mm 65 W/m2
15:39 6.3 °C 5.6 °C 1027.4 hPa NW 7.9 km/h 12.9 km/h 95% 0.2 mm 74 W/m2
15:44 6.3 °C 5.6 °C 1027.4 hPa West 6.4 km/h 20.9 km/h 95% 0.2 mm 69 W/m2
15:49 6.3 °C 5.6 °C 1027.4 hPa WNW 4.7 km/h 14.5 km/h 95% 0.2 mm 56 W/m2
15:54 6.3 °C 5.6 °C 1027.4 hPa NW 3.2 km/h 20.9 km/h 95% 0.0 mm 44 W/m2
15:59 6.3 °C 5.6 °C 1027.8 hPa NW 7.9 km/h 14.5 km/h 95% 0.0 mm 33 W/m2
16:04 6.3 °C 5.6 °C 1027.8 hPa WSW 4.7 km/h 14.5 km/h 95% 0.0 mm 35 W/m2
16:09 6.2 °C 5.5 °C 1027.4 hPa West 3.2 km/h 22.5 km/h 95% 0.0 mm 30 W/m2
16:14 6.3 °C 5.6 °C 1027.8 hPa WNW 4.7 km/h 19.3 km/h 95% 0.0 mm 40 W/m2
16:19 6.3 °C 5.6 °C 1027.4 hPa NW 7.9 km/h 22.5 km/h 95% 0.0 mm 46 W/m2
16:24 6.3 °C 5.6 °C 1027.4 hPa NW 6.4 km/h 14.5 km/h 95% 0.0 mm 44 W/m2
16:29 6.3 °C 5.6 °C 1027.4 hPa WNW 7.9 km/h 17.7 km/h 95% 0.0 mm 39 W/m2
16:34 6.3 °C 5.6 °C 1027.8 hPa WNW 6.4 km/h 12.9 km/h 95% 0.0 mm 35 W/m2
16:39 6.3 °C 5.6 °C 1027.8 hPa WNW 6.4 km/h 19.3 km/h 95% 0.0 mm 32 W/m2
16:44 6.3 °C 5.6 °C 1027.4 hPa SW 7.9 km/h 22.5 km/h 95% 0.0 mm 28 W/m2
16:49 6.3 °C 5.6 °C 1027.4 hPa West 6.4 km/h 19.3 km/h 95% 0.0 mm 32 W/m2
16:54 6.3 °C 5.6 °C 1027.4 hPa West 14.3 km/h 22.5 km/h 95% 0.0 mm 23 W/m2
16:59 6.3 °C 5.6 °C 1027.4 hPa West 9.7 km/h 17.7 km/h 95% 0.0 mm 18 W/m2
17:04 6.3 °C 5.6 °C 1027.4 hPa Calm   4.8 km/h 95% 0.0 mm 12 W/m2
17:09 6.3 °C 5.6 °C 1027.4 hPa NE 3.2 km/h 17.7 km/h 95% 0.0 mm 9 W/m2
17:14 6.3 °C 5.6 °C 1027.4 hPa NNW 1.4 km/h 8 km/h 95% 0.0 mm 5 W/m2
17:19 6.2 °C 5.5 °C 1027.8 hPa WSW 11.1 km/h 16.1 km/h 95% 0.0 mm 0 W/m2
17:24 6.2 °C 5.5 °C 1027.8 hPa SW 3.2 km/h 12.9 km/h 95% 0.0 mm 0 W/m2
17:29 6.3 °C 5.6 °C 1027.4 hPa West 6.4 km/h 14.5 km/h 95% 0.0 mm 0 W/m2
17:34 6.2 °C 5.5 °C 1027.4 hPa NW 7.9 km/h 22.5 km/h 95% 0.0 mm 0 W/m2
17:39 6.2 °C 5.5 °C 1027.4 hPa North 1.4 km/h 9.7 km/h 95% 0.0 mm 0 W/m2
17:44 6.3 °C 5.6 °C 1027.4 hPa WSW 1.4 km/h 22.5 km/h 95% 0.0 mm 0 W/m2
17:49 6.3 °C 5.6 °C 1027.8 hPa West 11.1 km/h 14.5 km/h 95% 0.0 mm 0 W/m2
17:54 6.3 °C 5.6 °C 1027.4 hPa NNW 6.4 km/h 19.3 km/h 95% 0.0 mm 0 W/m2
17:59 6.3 °C 5.6 °C 1027.4 hPa North 3.2 km/h 16.1 km/h 95% 0.0 mm 0 W/m2
18:04 6.3 °C 5.6 °C 1027.8 hPa WSW 6.4 km/h 16.1 km/h 95% 0.0 mm 0 W/m2
18:09 6.3 °C 5.6 °C 1027.8 hPa NW 4.7 km/h 14.5 km/h 95% 0.0 mm 0 W/m2
18:14 6.3 °C 5.6 °C 1027.8 hPa WNW 6.4 km/h 11.3 km/h 95% 0.0 mm 0 W/m2
18:19 6.3 °C 5.6 °C 1028.1 hPa WSW 6.4 km/h 19.3 km/h 95% 0.0 mm 0 W/m2
18:24 6.3 °C 5.6 °C 1027.8 hPa NW 6.4 km/h 16.1 km/h 95% 0.2 mm 0 W/m2
18:29 6.3 °C 5.6 °C 1027.4 hPa West 3.2 km/h 16.1 km/h 95% 0.2 mm 0 W/m2
18:34 6.3 °C 5.6 °C 1027.8 hPa WNW 11.1 km/h 16.1 km/h 95% 0.2 mm 0 W/m2
18:39 6.3 °C 5.6 °C 1027.8 hPa South 16.3 km/h 16.1 km/h 95% 0.2 mm 0 W/m2
18:44 6.3 °C 5.6 °C 1027.8 hPa West 1.4 km/h 9.7 km/h 95% 0.2 mm 0 W/m2
18:49 6.4 °C 5.7 °C 1027.8 hPa WNW 4.7 km/h 16.1 km/h 95% 0.5 mm 0 W/m2
18:54 6.4 °C 5.7 °C 1028.1 hPa WNW 1.4 km/h 17.7 km/h 95% 0.5 mm 0 W/m2
18:59 6.4 °C 5.7 °C 1028.1 hPa WNW 1.4 km/h 6.4 km/h 95% 0.5 mm 0 W/m2
19:04 6.4 °C 5.7 °C 1028.1 hPa West 3.2 km/h 17.7 km/h 95% 0.5 mm 0 W/m2
19:09 6.4 °C 5.7 °C 1027.8 hPa WNW 1.4 km/h 11.3 km/h 95% 0.5 mm 0 W/m2
19:14 6.4 °C 5.7 °C 1028.1 hPa NW 4.7 km/h 16.1 km/h 95% 0.5 mm 0 W/m2
19:19 6.4 °C 5.7 °C 1027.8 hPa NW 7.9 km/h 12.9 km/h 95% 0.5 mm 0 W/m2
19:24 6.4 °C 5.7 °C 1027.8 hPa NNW 3.2 km/h 11.3 km/h 95% 0.5 mm 0 W/m2
19:29 6.4 °C 5.7 °C 1027.8 hPa NNW 4.7 km/h 12.9 km/h 95% 0.5 mm 0 W/m2
19:34 6.5 °C 5.8 °C 1027.8 hPa WNW 6.4 km/h 9.7 km/h 95% 0.5 mm 0 W/m2
19:39 6.5 °C 5.8 °C 1027.8 hPa NW 4.7 km/h 14.5 km/h 95% 0.5 mm 0 W/m2
19:44 6.6 °C 5.9 °C 1028.1 hPa SW 1.4 km/h 3.2 km/h 95% 0.5 mm 0 W/m2
19:49 6.6 °C 5.9 °C 1027.8 hPa West 9.7 km/h 14.5 km/h 95% 0.5 mm 0 W/m2
19:54 6.6 °C 5.9 °C 1027.8 hPa WSW 1.4 km/h 6.4 km/h 95% 0.5 mm 0 W/m2
19:59 6.6 °C 5.9 °C 1027.8 hPa NW 3.2 km/h 4.8 km/h 95% 0.5 mm 0 W/m2
20:04 6.6 °C 5.9 °C 1028.1 hPa WNW 11.1 km/h 14.5 km/h 95% 0.5 mm 0 W/m2
20:09 6.6 °C 5.9 °C 1027.8 hPa NNW 9.7 km/h 9.7 km/h 95% 0.5 mm 0 W/m2
20:14 6.6 °C 5.9 °C 1027.8 hPa SSW 9.7 km/h 11.3 km/h 95% 0.5 mm 0 W/m2
20:19 6.7 °C 6 °C 1027.8 hPa SW 7.9 km/h 9.7 km/h 95% 0.5 mm 0 W/m2
20:24 6.7 °C 6 °C 1027.8 hPa WNW 3.2 km/h 14.5 km/h 95% 0.5 mm 0 W/m2
20:29 6.7 °C 6 °C 1027.8 hPa NNW 3.2 km/h 8 km/h 95% 0.5 mm 0 W/m2
20:34 6.7 °C 6 °C 1027.8 hPa West 4.7 km/h 14.5 km/h 95% 0.5 mm 0 W/m2
20:39 6.7 °C 6 °C 1027.8 hPa West 4.7 km/h 17.7 km/h 95% 0.5 mm 0 W/m2
20:44 6.7 °C 6 °C 1027.8 hPa West 4.7 km/h 6.4 km/h 95% 0.5 mm 0 W/m2
20:49 6.7 °C 6 °C 1028.1 hPa West 4.7 km/h 8 km/h 95% 0.5 mm 0 W/m2
20:54 6.7 °C 6 °C 1028.1 hPa WSW 3.2 km/h 3.2 km/h 95% 0.5 mm 0 W/m2
20:59 6.7 °C 6 °C 1028.1 hPa SW 7.9 km/h 8 km/h 95% 0.5 mm 0 W/m2
21:04 6.7 °C 6 °C 1028.1 hPa WSW 7.9 km/h 16.1 km/h 95% 0.5 mm 0 W/m2
21:10 6.8 °C 6.1 °C 1028.1 hPa West 9.7 km/h 17.7 km/h 95% 0.5 mm 0 W/m2
21:15 6.8 °C 6.1 °C 1028.1 hPa WSW 11.1 km/h 11.3 km/h 95% 0.5 mm 0 W/m2
21:20 6.8 °C 6.1 °C 1028.1 hPa West 3.2 km/h 9.7 km/h 95% 0.5 mm 0 W/m2
21:25 6.8 °C 6.2 °C 1028.5 hPa Calm   4.8 km/h 96% 0.5 mm 0 W/m2
21:30 6.8 °C 6.2 °C 1028.5 hPa WNW 4.7 km/h 6.4 km/h 96% 0.5 mm 0 W/m2
21:35 6.8 °C 6.2 °C 1028.5 hPa WNW 6.4 km/h 6.4 km/h 96% 0.5 mm 0 W/m2
21:40 6.8 °C 6.2 °C 1028.5 hPa SW 3.2 km/h 6.4 km/h 96% 0.2 mm 0 W/m2
21:45 6.9 °C 6.3 °C 1028.5 hPa West 4.7 km/h 11.3 km/h 96% 0.2 mm 0 W/m2
21:50 6.9 °C 6.3 °C 1028.5 hPa WNW 4.7 km/h 9.7 km/h 96% 0.2 mm 0 W/m2
21:55 7 °C 6.4 °C 1028.1 hPa WSW 3.2 km/h 6.4 km/h 96% 0.0 mm 0 W/m2
22:00 7 °C 6.4 °C 1028.1 hPa West 4.7 km/h 6.4 km/h 96% 0.0 mm 0 W/m2
22:05 7.1 °C 6.5 °C 1028.1 hPa SW 1.4 km/h 11.3 km/h 96% 0.2 mm 0 W/m2
22:10 7.1 °C 6.5 °C 1028.1 hPa WNW 1.4 km/h 3.2 km/h 96% 0.2 mm 0 W/m2
22:15 7.2 °C 6.6 °C 1028.1 hPa WSW 6.4 km/h 12.9 km/h 96% 0.2 mm 0 W/m2
22:20 7.2 °C 6.6 °C 1028.1 hPa WNW 9.7 km/h 16.1 km/h 96% 0.2 mm 0 W/m2
22:25 7.3 °C 6.7 °C 1028.1 hPa West 6.4 km/h 12.9 km/h 96% 0.2 mm 0 W/m2
22:30 7.4 °C 6.8 °C 1028.1 hPa WSW 13 km/h 14.5 km/h 96% 0.2 mm 0 W/m2
22:35 7.5 °C 6.9 °C 1028.1 hPa West 3.2 km/h 9.7 km/h 96% 0.2 mm 0 W/m2
22:40 7.6 °C 7 °C 1027.8 hPa West 4.7 km/h 9.7 km/h 96% 0.2 mm 0 W/m2
22:45 7.6 °C 7 °C 1028.1 hPa WSW 6.4 km/h 17.7 km/h 96% 0.2 mm 0 W/m2
22:50 7.6 °C 7 °C 1027.8 hPa West 13 km/h 12.9 km/h 96% 0.2 mm 0 W/m2
22:55 7.7 °C 7.1 °C 1028.1 hPa West 3.2 km/h 17.7 km/h 96% 0.2 mm 0 W/m2
23:00 7.7 °C 7.1 °C 1027.8 hPa West 6.4 km/h 17.7 km/h 96% 0.2 mm 0 W/m2
23:05 7.8 °C 7.2 °C 1027.8 hPa West 9.7 km/h 12.9 km/h 96% 0.0 mm 0 W/m2
23:10 7.9 °C 7.3 °C 1027.8 hPa WNW 6.4 km/h 17.7 km/h 96% 0.0 mm 0 W/m2
23:15 7.9 °C 7.3 °C 1028.1 hPa WSW 11.1 km/h 12.9 km/h 96% 0.0 mm 0 W/m2
23:20 8 °C 7.2 °C 1028.1 hPa West 6.4 km/h 11.3 km/h 95% 0.0 mm 0 W/m2
23:25 8.1 °C 7.3 °C 1028.1 hPa West 1.4 km/h 9.7 km/h 95% 0.0 mm 0 W/m2
23:30 8.1 °C 7.3 °C 1027.8 hPa West 4.7 km/h 8 km/h 95% 0.0 mm 0 W/m2
23:35 8.1 °C 7.3 °C 1027.8 hPa WNW 4.7 km/h 12.9 km/h 95% 0.0 mm 0 W/m2
23:40 8.1 °C 7.3 °C 1027.8 hPa West 3.2 km/h 9.7 km/h 95% 0.0 mm 0 W/m2
23:45 8.2 °C 7.4 °C 1028.1 hPa WNW 7.9 km/h 12.9 km/h 95% 0.0 mm 0 W/m2
23:50 8.2 °C 7.4 °C 1027.8 hPa WNW 4.7 km/h 14.5 km/h 95% 0.0 mm 0 W/m2
23:55 8.2 °C 7.4 °C 1027.8 hPa WSW 14.3 km/h 17.7 km/h 95% 0.2 mm 0 W/m2
Juneau County Weather
Compliments of Weather Underground - 4 mb